• MPC Preparation (Info)

  • MPEC 2022-V78 : 2008 YE29

    The following Minor Planet Electronic Circular may be linked-to from your own Web pages, but must not otherwise be redistributed electronically.

    A form allowing access to any MPEC is at the bottom of this page.


    Read MPEC 2022-V77 Read MPEC 2022-V79


    M.P.E.C. 2022-V78                              Issued 2022 November 3, 14:04 UT
    
         The Minor Planet Electronic Circulars contain information on unusual
             minor planets, routine data on comets and natural satellites,
             and occasional editorial announcements.  They are published
        on behalf of Division F of the International Astronomical Union by the
              Minor Planet Center, Smithsonian Astrophysical Observatory,
                              Cambridge, MA 02138, U.S.A.
    			  
                 Prepared using the Tamkin Foundation Computer Network
    
                                  MPC@CFA.HARVARD.EDU
                URL https://www.minorplanetcenter.net/    ISSN 1523-6714
    
                                    2008 YE29                                
    
    
                               Revision to MPEC 2008-Y75                            
    
    Additional Observations:
         K08Y29E 0C2022 10 05.58150902 46 39.379+05 31 19.83         23.00GVEV078T14
         K08Y29E  C2022 10 19.54095802 35 43.588+03 33 26.13         21.60GVEV078F52
         K08Y29E  C2022 10 19.55232002 35 42.875+03 33 19.54         23.09GVEV078F52
         K08Y29E  C2022 10 19.57507402 35 41.467+03 33 07.09         22.14GVEV078F52
         K08Y29E 0C2022 10 29.53725902 24 19.627+01 59 58.42         21.86GVEV078T09
         K08Y29E 0C2022 10 29.53796202 24 19.573+01 59 58.02         21.84GVEV078T09
         K08Y29E 0C2022 10 29.53867802 24 19.517+01 59 57.62         21.84GVEV078T09
    
    Observer details:
    F52 Pan-STARRS 2, Haleakala.  Observers J. Bulger, K. Chambers, T. Dukes, T.
        Lowe, A. Schultz, I. Smith.  Measurers S. Chastel, J. Fairlamb, M. Huber,
        Y. Ramanjooloo, R. Wainscoat, R. Weryk.  1.8-m Ritchey-Chretien + CCD.
    T09 Subaru Telescope, Maunakea.  Observers D. J. Tholen, S. S. Sheppard.
        Measurer D. J. Tholen.  8.2-m f/2.2 reflector + 2048 x 4176 pixels
        HyperSuprimeCam.
    T14 Canada-France-Hawaii Telescope, Maunakea.  Observer L. Wells.  Measurer D.
        J. Tholen.  3.6-m f/4.1 reflector + 1024 x 2306 pixels Megacam.
    
    First and last observations above in comparison with prediction:
    Residuals in seconds of arc (or two decimals in degrees), reference and Delta-T
    221005 T14 0.28+ 0.08+    221029 T09 0.33+ 0.08+    MPO158630   +0.56 days
    
    Orbital elements:
    2008 YE29                                                Earth MOID = 0.0509 AU
    Epoch 2022 Aug. 9.0 TT = JDT 2459800.5                  Veres                   
    M 308.97445              (2000.0)            P               Q                  
    n   0.21238635     Peri.    7.63582     -0.80056235     -0.59436886             
    a   2.7821785      Node   135.60110     +0.54387374     -0.77414215             
    e   0.6280174      Incl.    6.26292     +0.25159745     -0.21778338             
    P   4.64           H   20.39          G   0.15           U   0                  
    Residuals in seconds of arc
    081230 703  0.0   1.1+    090116 448  0.0   0.0     090227 B74  1.7+  0.1+
    081230 703  0.8+  0.5+    090116 448  0.0   0.2-    090227 B74  1.8+  0.1+
    081230 703  0.5-  0.6+    090117 G56  0.2+  0.1+    090228 A41  0.9-  0.2+
    081230 703  0.3+  1.0+    090117 G56  0.1+  0.7-    090228 A41  1.0+  0.0
    081230 H01  0.0   0.0     090117 G56 (0.8+  5.6-)   090228 A41 (2.0-  0.1-)
    081230 H01  0.1+  0.1+    090118 H45  0.0   0.1-    090312 H55  0.3-  0.4-
    081230 H01  0.1+  0.0     090118 H45  0.1-  0.3-    090312 H55  0.5-  0.2-
    081230 854  0.7-  0.0     090118 H45  0.2+  0.2-    090312 H55  0.5-  0.2-
    081230 H01  0.0   0.1+    090118 H45  0.1+  0.1-    090313 B90  0.0   0.1+
    081230 854  0.2+  0.3+    090118 H45  0.4-  0.1-    090313 B90  0.3+  0.1+
    081230 854  0.1+  0.7+    090118 H45  0.3-  0.0     090313 B90  0.0   0.0
    081230 H06  0.6+  0.7+    090123 H55  0.6+  0.4+    090313 B90  0.1-  0.3+
    081230 H06  0.4+  0.4+    090123 H55  0.0   0.4-    090320 H45  0.4-  0.2+
    081230 H06  0.0   1.2+    090123 H55  0.0   0.1-    090320 H45  0.4+  0.3+
    081230 113  0.5-  0.0     090126 704  0.6-  0.1+    090320 H45  0.2-  0.2-
    081230 104  0.4-  0.5-    090126 704  0.5+  0.4+    090320 H45  0.5+  0.3-
    081230 113  1.2-  0.4+    090126 704  1.2+  1.0-    090320 H45  0.2+  0.1+
    081230 104  0.4+  0.0     090126 704  0.6+  0.4+    090321 703  0.0   0.9+
    081230 113  1.0-  1.3+    090129 H55  0.3+  0.0     090321 703  0.4-  0.0
    081230 104  0.3-  0.3-    090129 H55  0.0   0.0     090321 703  0.3+  0.5+
    081230 B15  0.6-  0.4+    090129 H55  0.1+  0.0     090321 703  0.6-  1.1+
    081230 B15  0.4-  0.4+    090129 703  0.0   0.5-    090322 130  0.5-  0.1-
    081230 B15  0.4-  0.1+    090129 703  0.3+  0.2+    090322 130  0.3-  0.5+
    081230 B15  0.3-  0.1-    090129 703  0.5-  0.6-    090322 130  0.3-  0.0
    081230 611  0.5-  0.3+    090130 A78  0.3-  0.3-    090322 130  0.8-  0.2+
    081230 611  0.2+  0.3+    090130 A78  0.0   0.7-    090324 B88  0.4+  0.0
    081230 611  0.2+  0.5+    090130 A78  0.1-  0.1-    090324 B88  0.0   0.8-
    081230 A74  0.5-  0.6-    090131 H55  0.1+  0.3+    090324 B88  0.3+  0.0
    081230 A17  0.2+  0.1-    090131 H55  0.1+  0.4+    090330 B60  0.6+  0.1+
    081230 A17  0.0   0.1+    090131 H55  0.0   0.4+    090330 B60  0.7+  0.1-
    081230 A74  0.8+  0.1-    090131 G56 (2.0-  0.5-)   090330 B60  1.3+  0.3+
    081230 A17  0.1-  0.3+    090131 G56  0.3-  0.7-    090403 703  0.5+  0.1-
    081230 A74  0.4+  0.1-    090131 G56  0.3-  0.5-    090403 703  0.1-  0.1+
    081231 291  0.1-  0.0     090205 H55  0.2+  0.4+    090403 703  0.8-  0.3-
    081231 291  0.1-  0.0     090205 H55  0.3+  0.4-    090403 703  0.3-  0.5+
    081231 291  0.3-  0.0     090205 H55  0.2-  0.2-    090404 H45  0.4+  0.0
    090101 291  0.3-  0.1-    090209 H55  0.1-  0.3-    090404 H45  0.1-  0.4-
    090101 291  0.1-  0.2-    090209 H55  0.1-  0.2+    090404 H45  1.1+  0.4-
    090101 291  0.1-  0.1-    090209 H55  0.1-  0.1+    090404 H45  0.0   0.2+
    090101 H55  0.2-  0.1-    090209 560  0.3+  1.0+    090404 H45  0.0   0.4-
    090101 H55  0.1-  0.1-    090209 560  0.0   1.0+    090404 H45  0.9+  0.4+
    090101 H55  0.2-  0.1-    090209 560  0.1-  1.0+    090408 H55  0.5+  0.4+
    090102 291  0.2-  0.0     090213 H55  0.2-  0.1-    090408 H55  0.1+  0.2-
    090102 291  0.1-  0.1-    090213 H55  0.2-  0.1-    090408 H55  0.2+  0.2+
    090102 291  0.1-  0.0     090213 H55  0.0   0.0     090408 H55  0.2-  0.3-
    090103 448  0.2-  0.4-    090213 A48  0.1+  0.1+    090409 H55  0.0   0.2+
    090103 448  0.2-  0.1-    090213 A48  0.7+  0.3-    090409 H55  0.2-  0.0
    090103 291  0.1-  0.0     090213 A48  0.4+  0.1-    090409 H55  0.2-  0.2+
    090103 448  0.1-  0.3-    090213 A48  0.7-  0.6-    090427 703  1.1+  0.5-
    090103 291  0.2-  0.0     090214 204  0.2+  0.3-    090427 703  0.1+  1.5+
    090103 291  0.1-  0.0     090214 204  0.4-  0.2+    090427 703 (2.3+  1.8+)
    090107 448  0.1-  0.2-    090217 130  0.0   0.0     090427 703  0.5-  1.0+
    090107 448  0.3-  0.1+    090217 130  0.3+  0.3+    090523 H55  0.1+  0.9+
    090107 448  0.7-  0.1+    090217 130  0.5-  0.2-    090523 H55  1.0+  0.1-
    090109 H55  0.4+  0.5-    090217 130  0.3+  0.5-    090523 H55  0.3+  0.4+
    090109 H55  0.4+  0.6-    090221 704  0.2+  0.9-    221005 T14  0.0   0.0
    090109 H55  0.1+  0.3-    090221 704  0.5+  0.0     221019 F52  0.2-  0.4+
    090112 448  0.7-  0.3-    090221 704  0.5+  0.5-    221019 F52  0.2-  0.1+
    090112 448  0.2+  0.4+    090221 704  0.7+  0.7-    221019 F52  0.1+  0.2+
    090112 448  0.2+  0.1+    090222 H45  0.2+  0.3+    221029 T09  0.1+  0.0
    090116 H55  0.0   0.8+    090222 H45  0.1+  0.1+    221029 T09  0.1+  0.0
    090116 H55  0.1-  0.6-    090222 H45  0.1+  0.2+    221029 T09  0.1+  0.0
    090116 H55  0.1-  0.0     090222 H45  0.2+  0.4+
    090116 448  0.1-  0.4+    090222 H45  0.0   0.0
    
    Ephemeris:
    2008 YE29                a,e,i = 2.78, 0.63, 6                   q = 1.0349
    Date    TT    R. A. (2000) Decl.     Delta      r    Elong.  Phase     V
    2022 10 04    02 47 29.4 +05 43 07   1.3812  2.2907   147.8    13.5    23.7
    ...
    2022 10 19    02 36 16.3 +03 38 25   1.2027  2.1759   163.3     7.6    23.0
    ...
    2022 10 27    02 27 27.2 +02 23 50   1.1303  2.1133   168.3     5.5    22.7
    ...
    2022 11 02    02 19 53.3 +01 27 59   1.0872  2.0658   166.8     6.3    22.6
    2022 11 03    02 18 34.3 +01 18 54   1.0809  2.0578   166.1     6.7    22.6
    2022 11 04    02 17 14.7 +01 09 54   1.0749  2.0498   165.3     7.1    22.6
    ...
    2022 11 10    02 09 08.1 +00 18 39   1.0445  2.0017   159.3    10.1    22.6
    ...
    2022 11 18    01 58 26.0 -00 39 09   1.0178  1.9369   149.8    14.9    22.7
    ...
    2022 12 03    01 41 44.9 -01 38 25   1.0036  1.8138   131.5    24.0    22.8
    
    A. U. Tomatic                (C) Copyright 2022 MPC           M.P.E.C. 2022-V78
    


    Read MPEC 2022-V77 Read MPEC 2022-V79


    MPEC number:

    Enter an MPEC number in one of the following forms:

    • 1997-B01 (the full form)
    • J97B01 (the packed version of the full form)
    • B01 (the abbreviated form)